Powrót do katalogu

AETHER-10

AktywnyŁącznośćSSO
NORAD 67381·PAYLOAD·🇨🇦 Canada

Wystrzelony Jan 11, 2026 z Vandenberg Space Force Base

Loading…

Następne Przeloty (najbliższe 24 godziny)

TLE

ŚwieżeSource: Space-Track

Epoka: Sep 14, 2026, 10:42 UTC

1 67381U 26004U   26257.44638276  .00000476  00000-0  60629-4 0  9993
2 67381  97.8107 254.4956 0000469 180.1285 179.9930 14.85915167 36541

Śledź AETHER-10 w czasie rzeczywistym z AllMySat

Download on the App Store